Gorunna, Ireland
Current Conditions -  °F | °C
As of 8:30 AM on Thursday 23 Oct 2014 (Local Time) from EINN Reporting Station
Broken Clouds Broken Clouds  
Wind Chill: 57°   Ceiling: 10000
Heat Index: 57°   Visibility: 6mi
Dew Point: 54°   Wind: 9mph
Humidity: 88%   Direction: 200°SSW
Pressure: 29.91"   Gusts: NA
Location:  53.25°N, 9.68°W
Report Text: EINN 230830Z 20008KT 9999 FEW012 SCT030 BKN100 14/12 Q1013 NOSIG
Loading
Personal Weather Stations






























Interactive Weather Map
Tropical Storm Tracking
New forecast layout! Learn more

10-Day Weather Forecast

Advertisements
Track Severe Weather on mobile